sat.trackr.live / text

‹ back to catalog

STARLINK-35716

NORAD 67191 · 2025-303AE

PAYLOAD ACTIVE UNKNOWN

§ Identity

Operator
Country
US
Launch date
2025-12-17
Launch site
AFETR
Launch vehicle
Mass (kg)
RCS (m²)

Purposes: comms

External: N2YO · Heavens-Above · Gunter

§ Orbital elements

Epoch: 2026-05-24T15:00:53.355456Z

Period
94.27 min
Inclination
42.9996°
Eccentricity
0.0001390
Mean motion
15.27592608 rev/d
Perigee alt
482.1 km
Apogee alt
484.0 km
Semi-major
6,861.1 km
B*
3.9593e-4
RAAN
242.2889°
Arg perigee
273.6436°
Mean anomaly
86.4257°
Rev number
2,434

§ Raw data

STARLINK-357161 67191U 25303AE  26144.62561754  .00010653  00000+0  39593-3 0  99962 67191  42.9996 242.2889 0001390 273.6436  86.4257 15.27592608 24344

JSON: /api/v1/satellites/67191 · /tle

For live sub-satellite position, see the globe view (requires WebGL).

§ Visibility from observer

Set your observer location to see the next 7 days of passes ≥ 10°. The values pass through the URL so the page stays shareable.

No JS? Fill the form by hand. The geolocation button needs JavaScript.